When you browse on this site, cookies collect data to enhance your experience and personalize the content and advertising you see.
Visit our Privacy Policy to learn more. By continuing to use the site, you agree to this use of cookies and data.
  • în România
  • Lista ţărilor
  • Pe 7 zile
  • Temperatura apei
  • Hartă satelitară
  • Meteo pe hartă
  • Widget-uri
  • user-avatar
    Intrare

    Meteo pe oră la Kaczowice

    Astăzi, 16 Decembrie, Duminică

    Timp Temperatura Precipitaţii Vânt Presiune Umiditate
    00:00 -5°C° 0.2 mm 4 m/s 741 mmHg 90%
    01:00 -5°C° 0.2 mm 3 m/s 741 mmHg 90%
    02:00 -5°C° 0.1 mm 3 m/s 741 mmHg 91%
    03:00 -5°C° 0.1 mm 3 m/s 741 mmHg 92%
    04:00 -4°C° 0.1 mm 2 m/s 740 mmHg 92%
    05:00 -4°C° 0.1 mm 2 m/s 740 mmHg 93%
    06:00 -2°C° 0.1 mm 1 m/s 740 mmHg 93%
    07:00 -2°C° 0.1 mm 1 m/s 740 mmHg 94%
    08:00 -2°C° 0 mm 1 m/s 740 mmHg 92%
    09:00 -1°C° 0 mm 1 m/s 740 mmHg 91%
    10:00 -1°C° 0 mm 1 m/s 740 mmHg 89%
    11:00 -1°C° 0 mm 1 m/s 740 mmHg 88%
    12:00 0°C° 0 mm 1 m/s 740 mmHg 86%
    13:00 0°C° 0 mm 1 m/s 740 mmHg 84%
    14:00 -1°C° 0 mm 1 m/s 740 mmHg 86%
    15:00 -1°C° 0 mm 1 m/s 740 mmHg 88%
    16:00 -2°C° 0 mm 1 m/s 740 mmHg 91%
    17:00 -2°C° 0 mm 1 m/s 740 mmHg 91%
    18:00 -3°C° 0 mm 1 m/s 740 mmHg 91%
    19:00 -3°C° 0 mm 1 m/s 740 mmHg 91%
    20:00 -3°C° 0 mm 1 m/s 740 mmHg 91%
    21:00 -3°C° 0 mm 1 m/s 740 mmHg 91%
    22:00 -3°C° 0 mm 1 m/s 740 mmHg 90%
    23:00 -3°C° 0 mm 1 m/s 740 mmHg 90%

    Mâine, 17 Decembrie, Luni

    Timp Temperatura Precipitaţii Vânt Presiune Umiditate
    00:00 -3°C° 0 mm 1 m/s 741 mmHg 90%
    01:00 -3°C° 0 mm 1 m/s 741 mmHg 89%
    02:00 -3°C° 0 mm 1 m/s 741 mmHg 89%
    03:00 -4°C° 0 mm 1 m/s 740 mmHg 88%
    04:00 -4°C° 0 mm 1 m/s 740 mmHg 87%
    05:00 -3°C° 0 mm 1 m/s 741 mmHg 86%
    06:00 -3°C° 0 mm 1 m/s 741 mmHg 85%
    07:00 -3°C° 0 mm 1 m/s 741 mmHg 84%
    08:00 -2°C° 0 mm 1 m/s 742 mmHg 82%
    09:00 -2°C° 0 mm 1 m/s 742 mmHg 80%
    10:00 -1°C° 0 mm 1 m/s 742 mmHg 78%
    11:00 0°C° 0 mm 1 m/s 742 mmHg 77%
    12:00 0°C° 0 mm 1 m/s 742 mmHg 77%
    13:00 +1°C° 0 mm 1 m/s 742 mmHg 76%
    14:00 0°C° 0 mm 1 m/s 743 mmHg 79%
    15:00 -1°C° 0 mm 1 m/s 743 mmHg 82%
    16:00 -1°C° 0 mm 1 m/s 744 mmHg 85%
    17:00 -1°C° 0 mm 1 m/s 744 mmHg 86%
    18:00 -2°C° 0 mm 1 m/s 744 mmHg 87%
    19:00 -2°C° 0 mm 1 m/s 745 mmHg 88%
    20:00 -2°C° 0 mm 1 m/s 745 mmHg 88%
    21:00 -2°C° 0 mm 1 m/s 745 mmHg 89%
    22:00 -4°C° 0 mm 2 m/s 746 mmHg 90%
    23:00 -4°C° 0 mm 2 m/s 746 mmHg 90%

    Poimâine, 18 Decembrie, Marţi

    Timp Temperatura Precipitaţii Vânt Presiune Umiditate
    00:00 -4°C° 0 mm 2 m/s 746 mmHg 91%
    01:00 -4°C° 0 mm 2 m/s 746 mmHg 91%
    02:00 -2°C° 0 mm 1 m/s 746 mmHg 92%
    03:00 -2°C° 0 mm 1 m/s 746 mmHg 92%
    04:00 -2°C° 0 mm 1 m/s 747 mmHg 92%
    05:00 -2°C° 0 mm 1 m/s 747 mmHg 92%
    06:00 -2°C° 0 mm 1 m/s 747 mmHg 92%
    07:00 -2°C° 0 mm 1 m/s 747 mmHg 92%
    08:00 -1°C° 0 mm 1 m/s 747 mmHg 91%
    09:00 -1°C° 0 mm 1 m/s 748 mmHg 90%
    10:00 0°C° 0 mm 1 m/s 748 mmHg 88%
    11:00 +1°C° 0 mm 1 m/s 747 mmHg 89%
    12:00 +1°C° 0 mm 1 m/s 747 mmHg 89%
    13:00 +2°C° 0 mm 1 m/s 747 mmHg 89%
    14:00 +1°C° 0 mm 1 m/s 747 mmHg 90%
    15:00 0°C° 0 mm 1 m/s 747 mmHg 91%
    16:00 -1°C° 0 mm 1 m/s 746 mmHg 92%
    17:00 -1°C° 0 mm 1 m/s 747 mmHg 92%
    18:00 -1°C° 0 mm 1 m/s 747 mmHg 93%
    19:00 -4°C° 0 mm 2 m/s 747 mmHg 93%
    20:00 -4°C° 0 mm 2 m/s 747 mmHg 94%
    21:00 -4°C° 0 mm 2 m/s 747 mmHg 94%
    22:00 -4°C° 0 mm 2 m/s 747 mmHg 95%
    23:00 -4°C° 0 mm 2 m/s 746 mmHg 94%

    19 Decembrie, Miercuri

    Timp Temperatura Precipitaţii Vânt Presiune Umiditate
    00:00 -4°C° 0 mm 2 m/s 746 mmHg 94%
    01:00 -4°C° 0 mm 2 m/s 746 mmHg 93%
    02:00 -4°C° 0 mm 2 m/s 746 mmHg 93%
    03:00 -4°C° 0 mm 2 m/s 746 mmHg 93%
    04:00 -4°C° 0 mm 2 m/s 746 mmHg 92%
    05:00 -5°C° 0 mm 2 m/s 746 mmHg 92%
    06:00 -5°C° 0 mm 2 m/s 746 mmHg 93%
    07:00 -5°C° 0 mm 2 m/s 746 mmHg 93%
    08:00 -6°C° 0 mm 3 m/s 746 mmHg 91%
    09:00 -5°C° 0 mm 3 m/s 746 mmHg 89%
    10:00 -4°C° 0 mm 3 m/s 746 mmHg 88%
    11:00 -4°C° 0 mm 3 m/s 746 mmHg 87%
    12:00 -4°C° 0 mm 4 m/s 745 mmHg 86%
    13:00 -3°C° 0 mm 4 m/s 745 mmHg 86%
    14:00 -4°C° 0 mm 3 m/s 745 mmHg 88%
    15:00 -5°C° 0 mm 3 m/s 745 mmHg 90%
    16:00 -5°C° 0 mm 3 m/s 745 mmHg 92%
    17:00 -5°C° 0 mm 3 m/s 745 mmHg 92%
    18:00 -6°C° 0 mm 3 m/s 745 mmHg 91%
    19:00 -6°C° 0 mm 3 m/s 745 mmHg 91%
    20:00 -6°C° 0 mm 3 m/s 744 mmHg 91%
    21:00 -6°C° 0 mm 3 m/s 744 mmHg 90%
    22:00 -6°C° 0 mm 3 m/s 744 mmHg 90%
    23:00 -6°C° 0 mm 3 m/s 744 mmHg 89%

    20 Decembrie, Joi

    Timp Temperatura Precipitaţii Vânt Presiune Umiditate
    00:00 -7°C° 0 mm 3 m/s 744 mmHg 89%
    01:00 -7°C° 0 mm 3 m/s 744 mmHg 88%
    02:00 -7°C° 0 mm 3 m/s 744 mmHg 88%
    03:00 -7°C° 0 mm 3 m/s 743 mmHg 87%
    04:00 -7°C° 0 mm 3 m/s 743 mmHg 87%
    05:00 -7°C° 0 mm 3 m/s 743 mmHg 87%
    06:00 -7°C° 0 mm 3 m/s 743 mmHg 86%
    07:00 -6°C° 0 mm 3 m/s 743 mmHg 86%
    08:00 -6°C° 0 mm 3 m/s 743 mmHg 84%
    09:00 -5°C° 0 mm 3 m/s 743 mmHg 83%
    10:00 -4°C° 0 mm 3 m/s 743 mmHg 81%
    11:00 -4°C° 0 mm 3 m/s 743 mmHg 81%
    12:00 -2°C° 0 mm 2 m/s 743 mmHg 80%
    13:00 -1°C° 0 mm 2 m/s 743 mmHg 80%
    14:00 -2°C° 0 mm 2 m/s 743 mmHg 81%
    15:00 -2°C° 0 mm 2 m/s 743 mmHg 83%
    16:00 -2°C° 0 mm 2 m/s 743 mmHg 84%
    17:00 0°C° 0 mm 1 m/s 743 mmHg 84%
    18:00 0°C° 0 mm 1 m/s 743 mmHg 85%
    19:00 0°C° 0 mm 1 m/s 743 mmHg 86%
    20:00 0°C° 0.1 mm 1 m/s 743 mmHg 87%
    21:00 0°C° 0.1 mm 1 m/s 743 mmHg 88%
    22:00 0°C° 0.1 mm 1 m/s 743 mmHg 89%
    23:00 0°C° 0.1 mm 1 m/s 743 mmHg 89%

    21 Decembrie, Vineri

    Timp Temperatura Precipitaţii Vânt Presiune Umiditate
    00:00 0°C° 0.1 mm 1 m/s 743 mmHg 90%
    01:00 -1°C° 0.1 mm 1 m/s 743 mmHg 91%
    02:00 -1°C° 0 mm 1 m/s 743 mmHg 91%
    03:00 -1°C° 0 mm 1 m/s 743 mmHg 92%
    04:00 -1°C° 0 mm 1 m/s 743 mmHg 92%
    05:00 -1°C° 0 mm 1 m/s 743 mmHg 92%
    06:00 -1°C° 0 mm 1 m/s 743 mmHg 92%
    07:00 -2°C° 0 mm 1 m/s 743 mmHg 92%
    08:00 -1°C° 0 mm 1 m/s 743 mmHg 91%
    09:00 0°C° 0 mm 1 m/s 743 mmHg 90%
    10:00 0°C° 0 mm 1 m/s 743 mmHg 89%
    11:00 +1°C° 0 mm 1 m/s 743 mmHg 89%
    12:00 +1°C° 0 mm 1 m/s 743 mmHg 90%
    13:00 +1°C° 0 mm 1 m/s 743 mmHg 90%
    14:00 +1°C° 0 mm 1 m/s 743 mmHg 91%
    15:00 0°C° 0 mm 1 m/s 743 mmHg 92%
    16:00 0°C° 0 mm 1 m/s 743 mmHg 93%
    17:00 0°C° 0 mm 1 m/s 743 mmHg 93%
    18:00 0°C° 0 mm 1 m/s 743 mmHg 93%
    19:00 -1°C° 0 mm 1 m/s 743 mmHg 93%
    20:00 -1°C° 0 mm 1 m/s 743 mmHg 93%
    21:00 -1°C° 0 mm 1 m/s 743 mmHg 93%
    22:00 -1°C° 0 mm 1 m/s 743 mmHg 93%
    23:00 -1°C° 0 mm 1 m/s 742 mmHg 92%
    Arată mai mult